Skip Page Navigation
NASA JPL Caltech
NASA Logo - Jet Propulsion Laboratory + View the NASA Portal
+ Center for Near-Earth Object Studies
JPL Home Earth Solar System Stars & Galaxies Technology
JPL Solar System Dynamics
BODIES ORBITS EPHEMERIDES TOOLS PHYSICAL DATA DISCOVERY FAQ SITE MAP
JPL Small-Body Database Browser
Search: [ help ]  
67152 (2000 AM189)
Classification: Main-belt Asteroid          SPK-ID: 2067152
Ephemeris | Orbit Diagram | Orbital Elements | Mission Design | Physical Parameters | Discovery Circumstances | Close-Approach Data ]

[ show orbit diagram ]
Orbital Elements at Epoch 2459200.5 (2020-Dec-17.0) TDB
Reference: JPL 23 (heliocentric ecliptic J2000)
 Element Value Uncertainty (1-sigma)   Units 
e .2202898237173968 3.9363e-08  
a 2.625591988241429 7.7132e-09 au
q 2.047200791997915 1.0406e-07 au
i 11.65754881664862 4.6945e-06 deg
node 212.9687913410868 1.4876e-05 deg
peri 198.3214914955097 1.8271e-05 deg
M 358.0089882204283 8.0284e-06 deg
tp 2459209.094302055480
(2020-Dec-25.59430206)
3.4651e-05 TDB
period 1553.958028635233
4.25
6.8476e-06
1.875e-08
d
yr
n .2316664886478117 1.0209e-09 deg/d
Q 3.203983184484942 9.4124e-09 au
  Orbit Determination Parameters
   # obs. used (total)      1588  
   data-arc span      10181 days (27.87 yr)  
   first obs. used      1993-04-28  
   last obs. used      2021-03-13  
   planetary ephem.      DE441  
   SB-pert. ephem.      SB441-N16  
   condition code      0  
   norm. resid. RMS      .44458  
   source      ORB  
   producer      Otto Matic  
   solution date      2021-Apr-13 12:27:45  

Additional Information
 Earth MOID = 1.05962 au 
 Jupiter MOID = 2.20311 au 
 T_jup = 3.339 
[ show covariance matrix ]

Ephemeris | Orbit Diagram | Orbital Elements | Mission Design | Physical Parameters | Discovery Circumstances | Close-Approach Data ]

Physical Parameter Table
Parameter Symbol Value Units Sigma Reference Notes
absolute magnitude H 14.67   n/a MPCxxxxx  
diameter diameter 7.565 km 0.411 urn:nasa:pds:neowise_diameters_albedos::2.0[mainbelt] (http://adsabs.harvard.edu/abs/2011ApJ...741...68M)  
geometric albedo albedo 0.049   0.011 urn:nasa:pds:neowise_diameters_albedos::2.0[mainbelt] (http://adsabs.harvard.edu/abs/2011ApJ...741...68M)  

67152 (2000 AM189)          Discovered 2000-Jan-08 by LINEAR at Socorro
Reference: 20030910/Numbers.arcLast Updated: 2004-04-19

[ show close-approach data ]
Alternate Designations
 2000 AM189 = 1986 TE7 
Ephemeris | Orbit Diagram | Orbital Elements | Mission Design | Physical Parameters | Discovery Circumstances | Close-Approach Data ]
ABOUT SSD CREDITS/AWARDS PRIVACY/COPYRIGHT GLOSSARY LINKS
FirstGov 2021-Jun-23 07:16 UT
(server date/time)  
NASA Home Page
Site Manager:   Ryan S. Park
Webmaster  Alan B. Chamberlin